This is the latest recevied weather packets stored in our database for station/object OE3APM-13. If no packets are shown the sender has not sent any weather packets the latest 10 day(s).
| Time | Temp. | Humidity | Pressure | Rain* | Wind** | Luminosity | Snow |
|---|---|---|---|---|---|---|---|
| 1777484348 | 9.44° C | 34% | 1024.6 hPa | 0 mm | - | 7 W/m² | - |
| 1777484047 | 9.44° C | 35% | 1024.5 hPa | 0 mm | - | 12 W/m² | - |
| 1777483746 | 9.44° C | 34% | 1024.4 hPa | 0 mm | - | 19 W/m² | - |
| 1777483447 | 10° C | 34% | 1024.2 hPa | 0 mm | - | 28 W/m² | - |
| 1777483144 | 10° C | 34% | 1024.2 hPa | 0 mm | - | 39 W/m² | - |
| 1777482846 | 10° C | 36% | 1024.1 hPa | 0 mm | - | 49 W/m² | - |
| 1777482542 | 10° C | 34% | 1024.1 hPa | 0 mm | - | 62 W/m² | - |
| 1777482244 | 10.56° C | 35% | 1024 hPa | 0 mm | - | 69 W/m² | - |
| 1777481939 | 10.56° C | 34% | 1023.9 hPa | 0 mm | - | 74 W/m² | - |
| 1777481639 | 10.56° C | 36% | 1023.7 hPa | 0 mm | - | 26 W/m² | - |
| 1777481331 | 10.56° C | 35% | 1023.7 hPa | 0 mm | - | 26 W/m² | - |
| 1777481029 | 11.11° C | 34% | 1023.6 hPa | 0 mm | - | 33 W/m² | - |
| 1777480729 | 11.11° C | 34% | 1023.6 hPa | 0 mm | - | 134 W/m² | - |
| 1777480429 | 11.11° C | 34% | 1023.6 hPa | 0 mm | - | 167 W/m² | - |
| 1777480130 | 11.11° C | 35% | 1023.6 hPa | 0 mm | - | 183 W/m² | - |
| 1777479830 | 11.67° C | 35% | 1023.5 hPa | 0 mm | - | 195 W/m² | - |
| 1777479530 | 11.67° C | 34% | 1023.5 hPa | 0 mm | - | 211 W/m² | - |
| 1777479230 | 11.67° C | 34% | 1023.4 hPa | 0 mm | - | 223 W/m² | - |
| 1777478930 | 11.67° C | 35% | 1023.4 hPa | 0 mm | - | 239 W/m² | - |
| 1777478629 | 12.22° C | 35% | 1023.4 hPa | 0 mm | - | 255 W/m² | - |
| 1777478330 | 12.22° C | 35% | 1023.2 hPa | 0 mm | - | 267 W/m² | - |
| 1777478030 | 12.22° C | 36% | 1023.2 hPa | 0 mm | - | 281 W/m² | - |
| 1777477730 | 12.78° C | 35% | 1023.2 hPa | 0 mm | - | 294 W/m² | - |
| 1777477429 | 12.78° C | 38% | 1023.1 hPa | 0 mm | - | 309 W/m² | - |
| 1777477132 | 12.78° C | 35% | 1023.1 hPa | 0 mm | - | 327 W/m² | - |
* Rain latest hour (hover to see other rain measurements)
** Current wind speed in m/s (hover to see current wind gust speed)